Location: Ar Ranvel
(48.3000°N, 4.8833°W)
Time: 14:33:34
(UTC+00:00)

Genesis I - Pass Details

Date: 16 June 2021
Orbit: 476 x 543 km, 64.5° (Epoch: 04 August)

Event Time Altitude Azimuth Distance (km) Brightness Sun altitude
Rises 21:40:57 0° 229° (SW) 2,576 6.7 -9.9°
Reaches altitude 10° 21:43:06 10° 234° (SW) 1,708 5.8 -10.1°
Maximum altitude 21:46:51 55° 313° (NW) 622 4.0 -10.5°
Drops below altitude 10° 21:50:44 10° 32° (NNE) 1,761 6.2 -10.9°
Sets 21:52:59 0° 37° (NE) 2,665 7.1 -11.1°
